Theta_e
321 317 317 319 317 318 319 319 318 318 318 318 318 316 316 318 318 318 319 319 320 319 320 321 324 324 324 323 323 322 322 319 318 317 315 315 314 314 315 316 316 316 317 319
316 317 319 319 320 320 318 318 318 317 317 317 315 315 315 316 317 318 317 318 319 321 321 324 324 324 323 323 323 322 322 322 321 319 318 317 316 315 314 313 314 316 316 314
318 318 322 320 319 318 318 318 318 317 316 315 316 316 316 317 318 319 319 319 321 323 323 325 324 324 323 323 323 323 323 322 321 320 319 319 319 316 315 313 313 313 313 313
320 321 321 320 320 317 318 318 318 318 316 316 317 315 316 316 318 318 319 320 319 320 323 323 323 324 324 324 324 323 322 321 320 320 320 320 319 319 317 313 312 313 313 313
321 321 320 319 319 319 319 317 317 318 317 313 314 315 315 316 318 316 319 320 319 319 318 320 322 323 323 324 323 323 322 321 321 320 320 320 319 319 317 315 314 312 311 312
320 320 319 319 319 319 317 315 314 313 313 315 317 317 314 318 318 317 317 320 319 319 319 318 318 318 320 321 322 323 322 321 321 320 320 319 319 318 317 316 315 315 312 311
319 319 319 319 318 316 314 312 313 314 313 314 316 316 313 317 317 317 317 319 319 319 319 319 319 319 318 317 317 317 317 317 317 318 318 317 319 317 316 315 315 314 313 312
320 320 318 317 318 317 316 313 312 316 316 316 315 317 315 316 317 317 317 319 318 318 318 316 316 316 318 318 319 316 315 315 315 316 318 319 319 317 315 315 314 314 312 312
319 320 317 315 317 317 316 314 314 315 316 317 315 316 316 315 315 315 318 317 316 316 317 316 316 314 314 315 315 314 314 314 315 318 320 319 316 315 314 313 313 313 313 313
317 316 316 318 317 316 316 314 313 312 317 319 317 320 318 316 314 312 313 316 316 316 316 314 314 314 314 313 314 315 315 315 315 316 318 316 314 313 313 313 314 313 313 312
316 313 315 317 317 317 314 314 314 313 316 318 320 316 315 314 312 311 313 316 314 313 313 313 312 312 312 312 312 312 312 313 314 314 313 312 313 314 313 313 312 312 311 309
316 314 317 318 314 314 316 316 314 316 316 315 317 314 313 313 313 313 313 312 312 312 312 312 311 310 309 309 308 311 312 312 312 312 311 311 311 311 311 310 310 309 309 308
313 309 308 312 312 314 317 316 314 312 310 313 312 313 314 313 313 313 313 313 312 311 310 310 310 309 309 308 308 309 311 310 309 309 309 308 308 308 307 306 306 306 306 306
314 311 311 312 314 315 317 316 315 315 316 316 315 317 314 313 313 312 312 312 311 310 310 309 310 309 308 308 307 307 309 309 307 307 307 306 306 305 305 305 305 305 304 305
312 314 314 315 317 317 317 316 316 317 316 315 314 316 314 313 310 312 312 311 310 310 310 309 309 308 307 307 306 307 307 307 306 307 306 304 304 304 303 304 304 304 303 304
312 313 317 317 318 318 317 317 316 316 316 315 315 314 313 312 312 312 311 311 311 310 309 309 308 307 306 305 305 306 305 305 305 305 303 302 304 303 304 304 304 303 303 304
313 313 314 316 316 316 312 317 316 316 315 315 313 312 311 311 312 312 311 311 310 309 309 308 306 305 303 304 303 304 304 303 303 303 302 303 302 303 303 304 303 303 303 303
312 314 316 315 314 316 314 315 315 315 314 312 313 311 311 312 312 312 310 309 310 309 307 305 303 302 302 301 301 302 303 303 303 302 302 301 302 303 303 302 302 302 302 304
313 318 316 312 313 314 316 314 311 309 313 312 311 311 312 312 311 310 310 310 308 306 304 303 302 301 300 301 302 302 301 301 301 302 301 301 301 302 301 301 302 302 303 306
313 312 312 311 314 313 313 314 313 312 306 312 312 311 311 310 310 310 310 307 305 303 302 301 301 300 301 301 300 300 301 301 301 301 301 302 301 301 301 301 301 302 305 308
310 309 311 310 310 311 313 313 312 309 307 312 312 312 311 309 311 309 307 304 303 301 301 301 300 301 301 301 301 301 301 301 302 301 301 301 301 301 301 301 303 305 309 313
310 307 306 307 311 311 313 311 312 311 312 312 312 312 311 310 308 306 304 302 301 300 300 300 301 301 302 304 302 303 304 305 303 302 302 302 302 303 303 305 308 310 312 314
308 308 306 311 309 311 312 312 312 311 311 312 312 310 309 307 305 303 302 301 301 301 300 301 301 301 304 305 304 303 306 305 305 304 304 305 305 307 308 309 311 313 315 315
308 312 309 309 311 312 312 311 311 311 311 310 309 309 306 305 303 301 301 301 300 300 301 301 301 302 305 307 307 306 306 306 306 306 306 306 307 309 311 313 314 314 314 315
309 312 311 310 311 312 311 311 311 311 310 310 309 307 304 302 301 301 300 301 300 300 301 301 302 304 306 308 308 308 307 307 307 306 306 307 309 311 313 314 314 315 315 315
312 310 307 307 312 311 311 310 311 310 309 309 307 307 304 302 301 301 301 301 300 300 301 301 303 305 307 308 309 309 308 307 307 307 306 308 310 311 312 313 314 314 314 315
Wind_Speed
9 4 4 5 5 4 3 1 3 4 6 6 1 6 7 16 20 24 32 31 28 23 25 29 32 28 23 16 9 5 1 4 5 8 13 15 17 17 16 16 17 17 18 18
8 1 5 8 2 4 7 5 4 4 6 4 8 7 6 10 22 31 26 30 27 18 30 37 33 25 20 14 10 8 2 5 7 8 8 11 17 18 19 21 19 21 19 20
2 6 13 7 5 7 3 4 2 3 4 5 6 6 9 11 26 37 46 43 26 9 10 22 22 22 18 17 15 6 3 8 3 8 8 12 15 17 22 26 23 21 21 21
3 10 11 8 0 3 3 4 2 6 6 2 3 5 6 5 16 23 28 39 43 26 9 4 1 10 12 12 11 5 4 4 3 6 8 14 16 21 26 27 25 25 25 25
6 7 9 7 4 2 1 5 4 2 3 3 7 4 5 7 11 9 13 21 25 27 30 29 20 10 1 8 9 8 9 10 7 9 15 16 18 24 25 22 24 27 29 27
4 9 9 4 5 5 3 7 8 6 3 3 2 3 5 3 4 2 8 14 19 19 19 17 19 20 17 15 8 3 7 8 11 19 24 23 24 25 26 23 28 30 33 31
5 3 1 15 7 8 10 8 4 5 5 4 4 3 5 5 3 4 8 12 16 18 19 20 22 23 19 17 21 19 22 24 27 30 26 27 23 24 21 24 30 33 33 33
3 7 4 8 2 3 2 6 4 4 3 9 4 4 5 2 12 12 13 13 15 12 12 14 12 6 15 28 31 32 24 26 30 32 25 21 23 25 25 27 31 33 32 31
2 4 7 7 4 2 6 4 4 3 3 2 4 2 4 10 8 14 11 11 15 15 15 17 17 20 17 17 16 16 15 19 23 21 19 20 21 24 23 26 30 31 27 29
0 3 4 6 8 6 2 3 5 4 5 6 4 2 4 10 8 9 12 7 11 13 11 15 18 19 19 23 24 19 21 22 21 18 16 15 17 19 22 25 25 26 29 31
2 4 6 5 3 3 7 6 4 2 3 1 4 4 5 5 5 7 11 8 15 16 15 15 18 18 21 20 25 25 22 19 13 15 18 20 19 19 21 24 27 30 33 37
0 4 1 5 9 3 3 2 3 2 6 4 3 5 6 9 12 18 15 21 23 23 26 26 25 27 26 25 27 25 19 18 19 20 21 22 24 27 31 34 36 39 44 46
3 2 4 8 7 7 6 8 8 3 3 4 3 5 7 10 10 16 20 22 22 28 36 30 29 25 25 32 32 32 32 31 33 35 36 36 37 38 41 43 45 47 48 48
5 3 6 6 8 4 6 10 9 4 2 3 6 7 8 8 10 16 23 21 29 31 29 29 25 29 37 41 39 40 40 42 42 41 38 39 39 39 42 44 44 40 39 40
4 3 5 6 7 7 10 10 6 3 1 3 5 6 6 6 9 20 21 28 27 31 26 24 32 40 40 41 43 39 37 37 35 36 37 41 42 41 40 36 31 29 33 33
2 3 2 4 6 8 12 5 2 2 3 5 6 12 3 17 22 20 27 30 35 32 28 34 43 41 42 44 36 35 39 36 36 41 40 36 34 31 30 28 27 27 32 29
1 2 2 4 5 7 4 1 2 3 5 6 7 6 6 16 21 24 29 33 32 28 39 44 46 45 41 37 38 39 38 39 34 33 35 32 34 31 29 27 25 27 30 26
4 3 1 4 4 2 3 2 3 4 9 6 4 9 17 22 30 28 31 30 28 37 42 44 42 43 41 41 38 36 35 32 28 33 31 33 28 27 27 29 32 30 29 22
9 3 3 1 3 6 3 4 3 2 13 4 5 18 24 26 27 24 26 27 34 41 40 39 38 40 42 41 34 28 34 38 33 30 30 26 25 27 31 30 22 23 22 21
6 4 4 2 1 4 3 5 15 3 4 4 23 20 20 25 14 17 36 41 40 40 36 37 40 41 40 39 35 35 35 34 31 28 25 23 25 24 26 24 24 20 18 16
4 3 2 0 3 5 4 6 8 3 6 26 25 24 27 11 21 38 44 43 40 36 37 41 40 39 39 35 31 29 27 27 25 22 22 24 21 21 20 17 16 15 12 11
3 2 2 1 2 5 10 6 2 9 23 24 27 27 28 29 37 39 42 37 37 39 42 41 41 41 36 32 31 29 28 24 21 19 16 14 14 11 12 13 10 8 9 11
2 5 4 7 5 3 11 9 14 23 24 25 22 30 25 33 40 41 37 36 37 39 42 43 42 41 36 29 27 28 24 20 17 15 13 11 7 5 6 8 5 3 3 7
4 3 2 3 2 6 20 15 22 23 16 22 25 23 30 34 40 39 35 39 39 42 43 44 43 39 36 28 29 22 18 16 13 12 9 5 4 5 4 1 4 4 7 4
5 4 3 4 8 13 11 20 23 13 19 22 22 26 34 36 37 33 37 38 41 43 44 41 37 36 32 28 24 15 13 12 10 8 5 3 3 7 3 3 4 1 2 4
7 6 4 5 11 10 19 24 16 14 22 21 25 33 42 34 34 35 38 37 41 42 40 36 33 33 28 24 21 11 10 9 8 5 3 3 5 4 4 1 3 2 7 8
Wind_Direction
324 71 272 252 220 164 173 218 294 289 357 22 179 232 272 333 334 324 308 301 297 268 234 208 198 192 196 209 225 238 259 89 16 344 333 327 329 328 322 316 319 320 323 328
11 340 339 295 67 47 32 54 355 312 350 46 330 317 306 327 358 354 329 307 283 233 192 186 185 193 211 224 220 238 226 359 341 334 333 336 341 332 330 324 317 303 312 328
179 260 343 15 4 62 53 80 342 247 327 342 356 342 357 24 40 36 31 41 49 58 143 173 187 203 215 228 230 216 298 305 317 317 314 312 316 327 335 331 320 313 315 316
309 325 341 339 309 108 27 297 330 341 38 324 18 287 333 34 34 39 41 46 45 48 75 59 329 207 222 207 194 184 226 199 227 272 286 309 316 312 325 332 328 325 317 312
277 309 324 3 3 7 279 30 0 300 339 53 341 66 271 2 22 9 33 59 59 57 55 55 42 33 80 209 199 192 200 186 193 253 288 297 306 302 309 315 322 326 324 313
21 80 50 4 340 30 322 17 28 24 61 50 214 104 325 5 280 302 42 48 46 52 54 51 50 40 37 39 24 199 203 219 248 290 290 288 291 296 305 312 316 319 326 318
347 359 325 23 7 360 42 43 341 358 356 234 307 39 236 232 237 74 54 56 35 31 26 19 1 336 337 349 330 319 299 304 309 296 283 288 274 288 299 306 309 314 320 320
50 330 29 357 357 297 355 124 148 287 245 283 292 224 187 334 60 49 49 41 33 44 38 44 40 13 288 281 284 303 298 297 293 284 275 264 264 283 291 297 302 308 311 317
63 280 330 3 344 71 322 7 216 226 235 325 212 7 216 50 35 27 63 44 17 5 358 2 0 8 354 334 315 322 327 298 283 297 275 258 261 280 293 293 297 302 306 310
193 328 285 322 357 35 96 279 7 6 332 306 342 340 264 1 351 350 346 9 18 9 2 8 0 355 359 352 344 330 319 303 298 288 268 265 277 278 281 287 287 290 297 306
76 115 294 9 18 26 339 8 7 135 156 253 289 259 16 25 301 332 343 360 6 14 2 343 342 340 334 337 334 323 312 306 291 270 267 270 270 270 272 278 284 293 298 303
169 130 297 267 295 223 239 263 149 138 284 239 204 258 59 40 20 15 8 350 345 337 333 328 328 324 329 327 322 307 292 285 279 279 280 280 280 284 287 291 293 296 299 301
186 13 359 348 351 356 355 336 326 245 90 228 172 263 29 5 13 349 331 329 332 327 324 319 319 323 320 317 313 301 289 291 294 295 293 292 290 290 292 294 295 295 295 296
100 124 152 208 232 257 296 314 309 133 141 234 240 288 297 339 329 307 324 318 315 317 309 313 309 305 311 310 305 300 291 292 297 297 295 296 297 299 299 297 296 295 295 293
97 195 200 241 259 282 300 311 38 22 190 234 270 255 277 291 280 296 312 309 306 312 307 303 311 309 306 305 304 295 289 290 293 288 293 294 294 295 293 290 290 293 297 294
33 269 226 275 274 284 296 62 348 18 343 280 292 308 235 320 318 313 313 311 309 310 309 312 312 306 306 305 300 297 296 293 291 291 295 294 292 295 291 290 291 294 291 289
240 161 48 258 290 315 334 229 69 298 289 278 292 290 304 322 319 311 310 308 306 311 314 311 310 307 307 304 302 298 297 296 294 295 298 292 293 292 288 289 290 288 287 290
182 115 41 267 355 266 222 69 283 244 267 297 339 316 316 308 307 310 311 303 305 312 308 307 307 309 308 312 311 307 301 296 295 295 289 292 290 285 281 283 282 285 285 278
181 122 260 213 214 276 97 334 321 229 305 159 313 325 318 314 308 312 320 311 309 311 310 308 311 312 311 313 313 302 299 300 299 293 293 290 288 283 283 282 277 278 275 271
75 92 140 20 300 275 240 264 302 261 296 283 332 313 311 319 317 316 321 316 315 313 313 313 315 317 315 315 315 310 303 301 297 295 290 290 288 284 279 278 272 270 269 273
346 7 89 276 256 284 294 303 5 43 255 312 314 306 309 293 293 303 315 316 317 316 317 322 321 317 319 323 321 314 308 302 306 298 292 286 287 282 273 268 264 268 261 279
192 139 243 42 277 298 9 2 122 249 300 306 316 317 311 307 314 316 317 316 318 320 324 324 322 323 327 326 324 317 309 316 312 309 302 295 293 283 265 268 265 258 262 293
344 175 205 177 222 237 331 298 302 317 315 319 318 320 315 320 320 320 319 319 320 322 326 330 328 328 331 328 325 313 308 309 310 310 307 300 294 287 288 281 276 288 265 264
283 160 166 43 258 291 322 304 321 333 329 323 320 318 326 322 325 325 323 323 323 327 328 332 329 329 332 332 326 322 309 304 300 303 304 283 296 330 339 220 259 249 252 226
207 142 196 253 276 296 287 308 324 327 332 324 315 325 334 332 329 328 327 323 327 329 332 332 334 335 334 339 332 318 309 301 294 295 295 248 334 26 47 178 143 218 189 131
194 191 161 231 254 252 288 312 315 326 328 319 326 335 338 334 332 334 330 327 331 330 337 340 342 344 343 342 336 323 316 302 285 280 250 181 56 60 140 120 174 114 125 124